IV3IYL-13 Weather Reports


Display with metric or nautical units.
time (UTC)temp
F
wind
direction
speed
MPH
gust
MPH
rain 1hr
in
rain 24hr
in
rain mn
in
humidity
%
barometer
mb
20260507114606 66 0.0 0.0 0.00 0.00 0.00 83 1012.7
20260507113550 66 0.0 0.0 0.00 0.00 0.00 82 1012.8
20260507112551 67 0.0 0.0 0.00 0.00 0.00 80 1012.7
20260507111550 67 0.0 0.0 0.00 0.00 0.00 79 1012.8
20260507110550 66 0.0 0.0 0.00 0.00 0.00 77 1012.8
20260507105550 66 0.0 0.0 0.00 0.00 0.00 90 1013.0
20260507104550 65 0.0 0.0 0.00 0.00 0.00 92 1013.0
20260507103550 65 0.0 0.0 0.00 0.00 0.00 97 1013.1
20260507102550 65 0.0 0.0 0.00 0.00 0.00 95 1013.4
20260507101550 67 0.0 0.0 0.00 0.00 0.00 92 1013.2
20260507100550 66 0.0 0.0 0.00 0.00 0.00 94 1013.3
20260507095605 65 0.0 0.0 0.00 0.00 0.00 10 1013.3
20260507094550 65 0.0 0.0 0.00 0.00 0.00 10 1013.3
20260507093550 65 0.0 0.0 0.00 0.00 0.00 10 1013.3
20260507092550 65 0.0 0.0 0.00 0.00 0.00 10 1013.3
20260507091550 64 0.0 0.0 0.00 0.00 0.00 10 1013.2
20260507090550 63 0.0 0.0 0.00 0.00 0.00 10 1013.2
20260507085605 63 0.0 0.0 0.00 0.00 0.00 10 1013.3
20260507084550 63 0.0 0.0 0.00 0.00 0.00 10 1013.2
20260507083550 63 0.0 0.0 0.00 0.00 0.00 10 1013.2
20260507082550 62 0.0 0.0 0.00 0.00 0.00 10 1013.1
20260507081550 62 0.0 0.0 0.00 0.00 0.00 10 1013.2
20260507080550 61 0.0 0.0 0.00 0.00 0.00 10 1013.1
20260507075605 61 0.0 0.0 0.00 0.00 0.00 10 1013.1
20260507074550 60 0.0 0.0 0.00 0.00 0.00 10 1013.1
20260507073550 60 0.0 0.0 0.00 0.00 0.00 10 1013.0
20260507072550 60 0.0 0.0 0.00 0.00 0.00 10 1013.0
20260507071549 60 0.0 0.0 0.00 0.00 0.00 10 1013.0
20260507070549 60 0.0 0.0 0.00 0.00 0.00 10 1013.0
20260507065549 60 0.0 0.0 0.00 0.00 0.00 10 1013.0
20260507064549 59 0.0 0.0 0.00 0.00 0.00 10 1013.0
20260507063549 59 0.0 0.0 0.00 0.00 0.00 10 1013.0
20260507062605 59 0.0 0.0 0.00 0.00 0.00 10 1012.9
20260507061549 58 0.0 0.0 0.00 0.00 0.00 10 1012.9
20260507060549 58 0.0 0.0 0.00 0.00 0.00 10 1012.9
20260507055549 58 0.0 0.0 0.00 0.00 0.00 10 1012.7
20260507054549 57 0.0 0.0 0.00 0.00 0.00 10 1012.5
20260507053549 56 0.0 0.0 0.00 0.00 0.00 10 1012.4
20260507052549 56 0.0 0.0 0.00 0.00 0.00 10 1012.2
20260507051549 55 0.0 0.0 0.00 0.00 0.00 10 1012.2
20260507050549 55 0.0 0.0 0.00 0.00 0.00 10 1012.1
20260507045549 54 0.0 0.0 0.00 0.00 0.00 10 1012.1
20260507044549 54 0.0 0.0 0.00 0.00 0.00 10 1011.9
20260507043549 54 0.0 0.0 0.00 0.00 0.00 10 1011.8
20260507042549 54 0.0 0.0 0.00 0.00 0.00 10 1011.8
20260507041604 54 0.0 0.0 0.00 0.00 0.00 10 1011.7
20260507040549 55 0.0 0.0 0.00 0.00 0.00 10 1011.5
20260507035549 54 0.0 0.0 0.00 0.00 0.00 10 1011.5
20260507034549 55 0.0 0.0 0.00 0.00 0.00 10 1011.6
20260507033549 55 0.0 0.0 0.00 0.00 0.00 10 1011.5
20260507032549 55 0.0 0.0 0.00 0.00 0.00 10 1011.6
20260507031549 55 0.0 0.0 0.00 0.00 0.00 10 1011.5
20260507030549 56 0.0 0.0 0.00 0.00 0.00 10 1011.6
20260507025609 56 0.0 0.0 0.00 0.00 0.00 10 1011.5
20260507024549 57 0.0 0.0 0.00 0.00 0.00 10 1011.7
20260507023604 57 0.0 0.0 0.00 0.00 0.00 10 1011.5
20260507022548 57 0.0 0.0 0.00 0.00 0.00 10 1011.5
20260507021549 57 0.0 0.0 0.00 0.00 0.00 10 1011.5
20260507020549 57 0.0 0.0 0.00 0.00 0.00 10 1011.4
20260507015548 58 0.0 0.0 0.00 0.00 0.00 10 1011.5
20260507014549 58 0.0 0.0 0.00 0.00 0.00 10 1011.5
20260507013549 57 0.0 0.0 0.00 0.00 0.00 10 1011.5
20260507012548 57 0.0 0.0 0.00 0.00 0.00 10 1011.5
20260507011548 57 0.0 0.0 0.00 0.00 0.00 10 1011.5
20260507010549 57 0.0 0.0 0.00 0.00 0.00 10 1011.5
20260507005548 57 0.0 0.0 0.00 0.00 0.00 10 1011.5
20260507004549 57 0.0 0.0 0.00 0.00 0.00 10 1011.5
20260507003548 57 0.0 0.0 0.00 0.00 0.00 10 1011.4
20260507002603 58 0.0 0.0 0.00 0.00 0.00 10 1011.6
20260507001548 57 0.0 0.0 0.00 0.00 0.00 10 1011.6
20260507000548 57 0.0 0.0 0.00 0.00 0.00 10 1011.5
20260506235548 57 0.0 0.0 0.00 0.00 0.00 10 1011.6
20260506234548 58 0.0 0.0 0.00 0.00 0.00 10 1011.6
20260506233548 58 0.0 0.0 0.00 0.00 0.00 10 1011.7
20260506232548 57 0.0 0.0 0.00 0.00 0.00 10 1011.7
20260506231558 57 0.0 0.0 0.00 0.00 0.00 10 1011.6
20260506230608 57 0.0 0.0 0.00 0.00 0.00 10 1011.6
20260506225548 57 0.0 0.0 0.00 0.00 0.00 10 1011.6
20260506224548 57 0.0 0.0 0.00 0.00 0.00 10 1011.6
20260506223548 57 0.0 0.0 0.00 0.00 0.00 10 1011.7
20260506222553 57 0.0 0.0 0.00 0.00 0.00 10 1011.7
20260506221548 57 0.0 0.0 0.00 0.00 0.00 10 1011.6
20260506220548 57 0.0 0.0 0.00 0.00 0.00 10 1011.6
20260506215548 58 0.0 0.0 0.00 0.00 0.00 10 1011.5
20260506214548 58 0.0 0.0 0.00 0.00 0.00 10 1011.6
20260506213603 58 0.0 0.0 0.00 0.00 0.00 10 1011.7
20260506212618 58 0.0 0.0 0.00 0.00 0.00 10 1011.6
20260506211547 58 0.0 0.0 0.00 0.00 0.00 10 1011.7
20260506210547 58 0.0 0.0 0.00 0.00 0.00 10 1011.7
20260506205547 58 0.0 0.0 0.00 0.00 0.00 10 1011.6
20260506204548 58 0.0 0.0 0.00 0.00 0.00 10 1011.6
20260506203547 58 0.0 0.0 0.00 0.00 0.00 10 1011.5
20260506202547 58 0.0 0.0 0.00 0.00 0.00 10 1011.5
20260506201548 59 0.0 0.0 0.00 0.00 0.00 10 1011.4
20260506200547 59 0.0 0.0 0.00 0.00 0.00 10 1011.2
20260506195548 59 0.0 0.0 0.00 0.00 0.00 10 1011.2
20260506194552 59 0.0 0.0 0.00 0.00 0.00 10 1011.1
20260506193547 59 0.0 0.0 0.00 0.00 0.00 10 1011.0
20260506192552 59 0.0 0.0 0.00 0.00 0.00 10 1011.0
20260506191603 59 0.0 0.0 0.00 0.00 0.00 10 1010.9
20260506190547 59 0.0 0.0 0.00 0.00 0.00 10 1010.9
20260506185548 59 0.0 0.0 0.00 0.00 0.00 10 1010.8
20260506184547 60 0.0 0.0 0.00 0.00 0.00 10 1010.7
20260506183547 60 0.0 0.0 0.00 0.00 0.00 10 1010.6
20260506182547 60 0.0 0.0 0.00 0.00 0.00 10 1010.6
20260506181547 60 0.0 0.0 0.00 0.00 0.00 10 1010.5
20260506180547 60 0.0 0.0 0.00 0.00 0.00 10 1010.5
20260506175547 60 0.0 0.0 0.00 0.00 0.00 10 1010.5
20260506174547 60 0.0 0.0 0.00 0.00 0.00 10 1010.6
20260506173547 60 0.0 0.0 0.00 0.00 0.00 10 1010.6
20260506172547 60 0.0 0.0 0.00 0.00 0.00 10 1010.5
20260506171547 60 0.0 0.0 0.00 0.00 0.00 10 1010.5
20260506170547 60 0.0 0.0 0.00 0.00 0.00 10 1010.2
20260506165547 60 0.0 0.0 0.00 0.00 0.00 10 1010.3
20260506164547 60 0.0 0.0 0.00 0.00 0.00 10 1010.3
20260506163547 60 0.0 0.0 0.00 0.00 0.00 10 1010.4
20260506162547 60 0.0 0.0 0.00 0.00 0.00 10 1010.4
20260506161546 60 0.0 0.0 0.00 0.00 0.00 10 1010.4
20260506160602 59 0.0 0.0 0.00 0.00 0.00 10 1010.2
20260506155546 59 0.0 0.0 0.00 0.00 0.00 10 1010.2
20260506154547 59 0.0 0.0 0.00 0.00 0.00 10 1010.1
20260506153552 59 0.0 0.0 0.00 0.00 0.00 10 1010.2
20260506152547 59 0.0 0.0 0.00 0.00 0.00 10 1010.3
20260506151546 59 0.0 0.0 0.00 0.00 0.00 10 1010.4
20260506150547 60 0.0 0.0 0.00 0.00 0.00 10 1010.6
20260506145617 60 0.0 0.0 0.00 0.00 0.00 10 1010.4
20260506144546 60 0.0 0.0 0.00 0.00 0.00 10 1010.5
20260506143546 61 0.0 0.0 0.00 0.00 0.00 10 1010.2
20260506142546 61 0.0 0.0 0.00 0.00 0.00 10 1010.3
20260506141551 61 0.0 0.0 0.00 0.00 0.00 10 1010.4
20260506140551 61 0.0 0.0 0.00 0.00 0.00 10 1010.5
20260506135546 61 0.0 0.0 0.00 0.00 0.00 10 1010.5
20260506134546 60 0.0 0.0 0.00 0.00 0.00 10 1010.6
20260506133546 60 0.0 0.0 0.00 0.00 0.00 10 1010.7
20260506132546 61 0.0 0.0 0.00 0.00 0.00 10 1010.8
20260506131546 61 0.0 0.0 0.00 0.00 0.00 10 1010.8
20260506130546 61 0.0 0.0 0.00 0.00 0.00 10 1010.8
20260506125546 61 0.0 0.0 0.00 0.00 0.00 10 1010.9
20260506124546 60 0.0 0.0 0.00 0.00 0.00 10 1011.1
20260506123546 60 0.0 0.0 0.00 0.00 0.00 10 1011.1
20260506122546 60 0.0 0.0 0.00 0.00 0.00 10 1011.1
20260506121626 60 0.0 0.0 0.00 0.00 0.00 10 1011.2
20260506120546 60 0.0 0.0 0.00 0.00 0.00 10 1011.2
20260506115546 60 0.0 0.0 0.00 0.00 0.00 10 1011.2